CW0677 Weather Reports


Display with metric or nautical units.
time (UTC)temp
F
wind
direction
speed
MPH
gust
MPH
rain 1hr
in
rain 24hr
in
rain mn
in
humidity
%
barometer
mb
20260510080100 53 132 1.0 6.0 0.00 0.00 0.00 91 1014.3
20260510074553 53 174 2.0 6.0 0.00 0.00 0.00 90 1014.3
20260510073055 53 163 1.0 6.0 0.00 0.00 0.00 90 1014.4
20260510071555 53 227 3.0 7.0 0.00 0.00 0.00 90 1014.2
20260510070106 54 217 2.0 5.0 0.00 0.00 0.00 90 1014.2
20260510064608 53 177 2.0 7.0 0.00 0.00 0.00 90 1014.1
20260510063055 53 203 2.0 8.0 0.00 0.00 0.00 89 1014.0
20260510061554 54 0 1.0 9.0 0.00 0.00 0.00 89 1014.0
20260510060053 54 229 4.0 11.0 0.00 0.00 0.00 88 1014.1
20260510054553 54 192 2.0 9.0 0.00 0.00 0.00 88 1014.1
20260510053053 54 184 1.0 8.0 0.00 0.00 0.00 87 1014.1
20260510051605 55 224 1.0 8.0 0.00 0.00 0.00 86 1013.9
20260510044607 56 189 3.0 7.0 0.00 0.00 0.00 85 1013.7
20260510043055 56 215 3.0 7.0 0.00 0.00 0.00 85 1013.6
20260510041606 57 204 2.0 10.0 0.00 0.00 0.00 84 1013.5
20260510040054 57 170 2.0 6.0 0.00 0.00 0.00 82 1013.3
20260510034602 58 217 1.0 6.0 0.00 0.00 0.00 82 1013.0
20260510033057 59 195 3.0 10.0 0.00 0.00 0.00 81 1013.0
20260510031604 60 168 2.0 9.0 0.00 0.00 0.00 79 1013.0
20260510030104 61 230 2.0 7.0 0.00 0.00 0.00 77 1012.9
20260510024555 62 158 4.0 11.0 0.00 0.00 0.00 76 1012.8
20260510023055 63 146 2.0 10.0 0.00 0.00 0.00 75 1012.7
20260510021555 64 178 3.0 10.0 0.00 0.00 0.00 73 1012.7
20260510020054 65 173 3.0 12.0 0.00 0.00 0.00 73 1012.6
20260510014645 66 215 4.0 12.0 0.00 0.00 0.00 72 1012.7
20260510014556 66 215 4.0 12.0 0.00 0.00 0.00 72 1012.7
20260510013058 66 188 3.0 12.0 0.00 0.00 0.00 71 1012.6
20260510011555 68 247 3.0 12.0 0.00 0.00 0.00 70 1012.5
20260510010054 68 229 3.0 12.0 0.00 0.00 0.00 70 1012.7
20260510004553 69 184 5.0 14.0 0.00 0.00 0.00 69 1012.7
20260510003059 69 201 6.0 13.0 0.00 0.00 0.00 68 1012.9
20260510001554 70 198 5.0 14.0 0.00 0.00 0.00 67 1013.0
20260509234604 71 159 5.0 13.0 0.00 0.00 0.00 67 1013.1
20260509233059 73 171 4.0 12.0 0.00 0.00 0.00 65 1013.1
20260509231610 73 207 4.0 12.0 0.00 0.00 0.00 62 1013.3
20260509230106 72 142 4.0 15.0 0.00 0.00 0.00 62 1013.3
20260509224556 74 235 5.0 14.0 0.00 0.00 0.00 62 1013.4
20260509223056 74 177 4.0 13.0 0.00 0.00 0.00 60 1013.5
20260509221559 75 247 2.0 13.0 0.00 0.00 0.00 61 1013.8
20260509220055 74 181 6.0 14.0 0.00 0.00 0.00 60 1013.9
20260509214554 75 184 4.0 11.0 0.00 0.00 0.00 58 1014.0
20260509213057 74 232 4.0 12.0 0.00 0.00 0.00 59 1014.2
20260509211559 75 265 6.0 13.0 0.00 0.00 0.00 61 1014.3
20260509210108 74 192 6.0 11.0 0.00 0.00 0.00 61 1014.3
20260509204555 74 167 4.0 9.0 0.00 0.00 0.00 61 1014.4
20260509203056 73 266 6.0 12.0 0.00 0.00 0.00 63 1014.5
20260509201559 74 170 4.0 10.0 0.00 0.00 0.00 63 1014.6
20260509200103 75 184 4.0 10.0 0.00 0.00 0.00 63 1014.6
20260509194555 75 234 2.0 8.0 0.00 0.00 0.00 59 1014.7
20260509193056 75 151 3.0 8.0 0.00 0.00 0.00 58 1014.7
20260509191555 74 209 2.0 7.0 0.00 0.00 0.00 60 1014.9
20260509190109 74 182 2.0 6.0 0.00 0.00 0.00 58 1015.1
20260509184557 73 184 0.0 5.0 0.00 0.00 0.00 61 1015.2
20260509183055 71 132 1.0 6.0 0.00 0.00 0.00 62 1015.3
20260509181555 71 272 2.0 7.0 0.00 0.00 0.00 62 1015.3
20260509174557 68 288 2.0 4.0 0.00 0.00 0.00 65 1015.4
20260509173057 67 200 2.0 5.0 0.00 0.00 0.00 66 1015.4
20260509171555 67 201 0.0 4.0 0.00 0.00 0.00 68 1015.5
20260509170104 65 5 1.0 4.0 0.00 0.00 0.00 68 1015.6
20260509164553 64 0 1.0 4.0 0.00 0.00 0.00 71 1015.6
20260509163108 63 223 0.0 4.0 0.00 0.00 0.00 73 1015.7
20260509161556 61 273 2.0 5.0 0.00 0.00 0.00 76 1015.7
20260509160053 59 194 1.0 5.0 0.00 0.00 0.00 78 1015.8
20260509154607 59 148 1.0 6.0 0.00 0.00 0.00 78 1015.8
20260509153053 58 263 0.0 4.0 0.00 0.00 0.00 80 1015.8
20260509151558 56 0 1.0 4.0 0.00 0.00 0.00 81 1015.8
20260509150110 56 135 0.0 2.0 0.00 0.00 0.00 84 1015.7
20260509144600 53 0 0.0 0.0 0.00 0.00 0.00 89 1015.6
20260509143102 52 0 0.0 1.0 0.00 0.00 0.00 91 1015.8
20260509141554 51 284 1.0 3.0 0.00 0.00 0.00 90 1015.6
20260509140104 50 0 0.0 0.0 0.00 0.00 0.00 91 1015.6
20260509134554 49 0 0.0 0.0 0.00 0.00 0.00 91 1015.4
20260509133101 49 0 0.0 0.0 0.00 0.00 0.00 91 1015.3
20260509131555 49 0 0.0 0.0 0.00 0.00 0.00 91 1015.3
20260509130056 49 0 0.0 0.0 0.00 0.00 0.00 91 1015.3
20260509124559 49 0 0.0 0.0 0.00 0.00 0.00 91 1015.2
20260509123103 49 0 0.0 0.0 0.00 0.00 0.00 91 1015.2
20260509121601 49 0 0.0 0.0 0.00 0.00 0.00 90 1015.3
20260509120055 49 0 0.0 0.0 0.00 0.00 0.00 90 1015.3
20260509114602 50 0 0.0 0.0 0.00 0.00 0.00 90 1015.3
20260509113057 50 0 0.0 0.0 0.00 0.00 0.00 90 1015.4
20260509111558 50 0 0.0 0.0 0.00 0.00 0.00 89 1015.3
20260509110103 51 0 0.0 1.0 0.00 0.00 0.00 89 1015.3
20260509104554 51 0 0.0 1.0 0.00 0.00 0.00 89 1015.3
20260509103057 51 0 0.0 2.0 0.00 0.00 0.00 88 1015.3
20260509101600 51 0 0.0 4.0 0.00 0.00 0.00 88 1015.4
20260509100057 51 195 0.0 3.0 0.00 0.00 0.00 88 1015.4
20260509094604 51 230 0.0 3.0 0.00 0.00 0.00 88 1015.4
20260509093057 51 0 0.0 2.0 0.00 0.00 0.00 88 1015.4
20260509091602 52 0 0.0 1.0 0.00 0.00 0.00 87 1015.4
20260509090111 52 0 0.0 3.0 0.00 0.00 0.00 87 1015.5
20260509084601 52 174 0.0 3.0 0.00 0.00 0.00 87 1015.6
20260509083104 52 242 0.0 3.0 0.00 0.00 0.00 87 1015.6
20260509081600 53 198 0.0 2.0 0.00 0.00 0.00 86 1015.7